• In Uzbekistan
  • List of Countries
  • For 7 days
  • Water Temperature
  • Satellite Maps
  • Weather Map
  • Weather Widgets
  • user-avatar
    Login

    Hourly Weather Shkoder

    Today, 25 September, Tuesday

    Time Temperature Precipitation Wind Pressure Humidity
    00:00 +11°C° 0 mm 6 mps 745 mmHg 65%
    01:00 +11°C° 0 mm 6 mps 746 mmHg 64%
    02:00 +10°C° 0 mm 6 mps 746 mmHg 64%
    03:00 +10°C° 0 mm 6 mps 746 mmHg 65%
    04:00 +9°C° 0 mm 6 mps 746 mmHg 65%
    05:00 +9°C° 0 mm 6 mps 746 mmHg 62%
    06:00 +10°C° 0 mm 6 mps 747 mmHg 59%
    07:00 +10°C° 0 mm 6 mps 747 mmHg 57%
    08:00 +13°C° 0 mm 6 mps 747 mmHg 49%
    09:00 +15°C° 0 mm 6 mps 747 mmHg 42%
    10:00 +17°C° 0 mm 6 mps 747 mmHg 35%
    11:00 +19°C° 0 mm 6 mps 747 mmHg 33%
    12:00 +20°C° 0 mm 5 mps 747 mmHg 30%
    13:00 +21°C° 0 mm 5 mps 747 mmHg 28%
    14:00 +20°C° 0 mm 5 mps 746 mmHg 30%
    15:00 +20°C° 0 mm 5 mps 746 mmHg 31%
    16:00 +19°C° 0 mm 5 mps 746 mmHg 32%
    17:00 +16°C° 0 mm 6 mps 747 mmHg 38%
    18:00 +14°C° 0 mm 6 mps 748 mmHg 44%
    19:00 +11°C° 0 mm 6 mps 748 mmHg 49%
    20:00 +10°C° 0 mm 6 mps 749 mmHg 52%
    21:00 +9°C° 0 mm 6 mps 749 mmHg 55%
    22:00 +8°C° 0 mm 6 mps 750 mmHg 58%
    23:00 +8°C° 0 mm 6 mps 750 mmHg 58%

    Tomorrow, 26 September, Wednesday

    Time Temperature Precipitation Wind Pressure Humidity
    00:00 +8°C° 0 mm 6 mps 750 mmHg 58%
    01:00 +7°C° 0 mm 6 mps 750 mmHg 59%
    02:00 +7°C° 0 mm 6 mps 750 mmHg 59%
    03:00 +7°C° 0 mm 6 mps 750 mmHg 60%
    04:00 +5°C° 0 mm 6 mps 750 mmHg 61%
    05:00 +7°C° 0 mm 6 mps 750 mmHg 56%
    06:00 +8°C° 0 mm 6 mps 751 mmHg 52%
    07:00 +8°C° 0 mm 6 mps 751 mmHg 47%
    08:00 +10°C° 0 mm 6 mps 751 mmHg 41%
    09:00 +13°C° 0 mm 6 mps 751 mmHg 35%
    10:00 +15°C° 0 mm 6 mps 751 mmHg 29%
    11:00 +16°C° 0 mm 6 mps 750 mmHg 27%
    12:00 +17°C° 0 mm 6 mps 750 mmHg 25%
    13:00 +19°C° 0 mm 5 mps 750 mmHg 23%
    14:00 +19°C° 0 mm 5 mps 750 mmHg 24%
    15:00 +17°C° 0 mm 5 mps 750 mmHg 24%
    16:00 +18°C° 0 mm 4 mps 749 mmHg 25%
    17:00 +14°C° 0 mm 4 mps 750 mmHg 30%
    18:00 +12°C° 0 mm 4 mps 750 mmHg 35%
    19:00 +10°C° 0 mm 4 mps 751 mmHg 41%
    20:00 +8°C° 0 mm 4 mps 751 mmHg 44%
    21:00 +8°C° 0 mm 4 mps 752 mmHg 47%
    22:00 +7°C° 0 mm 4 mps 752 mmHg 50%
    23:00 +7°C° 0 mm 4 mps 752 mmHg 51%

    Day after tomorrow, 27 September, Thursday

    Time Temperature Precipitation Wind Pressure Humidity
    00:00 +6°C° 0 mm 4 mps 752 mmHg 52%
    01:00 +6°C° 0 mm 4 mps 751 mmHg 53%
    02:00 +6°C° 0 mm 4 mps 751 mmHg 52%
    03:00 +6°C° 0 mm 4 mps 751 mmHg 51%
    04:00 +6°C° 0 mm 4 mps 751 mmHg 50%
    05:00 +7°C° 0 mm 4 mps 750 mmHg 46%
    06:00 +8°C° 0 mm 4 mps 750 mmHg 42%
    07:00 +10°C° 0 mm 4 mps 750 mmHg 38%
    08:00 +13°C° 0 mm 4 mps 750 mmHg 33%
    09:00 +15°C° 0 mm 4 mps 749 mmHg 28%
    10:00 +19°C° 0 mm 4 mps 749 mmHg 23%
    11:00 +20°C° 0 mm 4 mps 748 mmHg 22%
    12:00 +21°C° 0 mm 4 mps 748 mmHg 21%
    13:00 +22°C° 0 mm 4 mps 747 mmHg 20%
    14:00 +22°C° 0 mm 4 mps 746 mmHg 22%
    15:00 +21°C° 0 mm 4 mps 746 mmHg 24%
    16:00 +21°C° 0 mm 4 mps 745 mmHg 26%
    17:00 +18°C° 0 mm 4 mps 745 mmHg 31%
    18:00 +15°C° 0 mm 4 mps 746 mmHg 36%
    19:00 +12°C° 0 mm 3 mps 746 mmHg 41%
    20:00 +12°C° 0 mm 4 mps 746 mmHg 42%
    21:00 +11°C° 0 mm 4 mps 746 mmHg 44%
    22:00 +10°C° 0 mm 4 mps 745 mmHg 45%
    23:00 +9°C° 0 mm 5 mps 745 mmHg 45%

    28 September, Friday

    Time Temperature Precipitation Wind Pressure Humidity
    00:00 +9°C° 0 mm 5 mps 745 mmHg 45%
    01:00 +9°C° 0 mm 5 mps 744 mmHg 45%
    02:00 +9°C° 0 mm 5 mps 744 mmHg 45%
    03:00 +9°C° 0 mm 5 mps 744 mmHg 45%
    04:00 +9°C° 0 mm 5 mps 743 mmHg 44%
    05:00 +11°C° 0 mm 4 mps 743 mmHg 43%
    06:00 +12°C° 0 mm 4 mps 743 mmHg 41%
    07:00 +13°C° 0 mm 4 mps 743 mmHg 39%
    08:00 +15°C° 0 mm 4 mps 743 mmHg 36%
    09:00 +18°C° 0 mm 4 mps 742 mmHg 32%
    10:00 +20°C° 0 mm 4 mps 742 mmHg 29%
    11:00 +21°C° 0 mm 4 mps 741 mmHg 29%
    12:00 +22°C° 0 mm 3 mps 741 mmHg 28%
    13:00 +25°C° 0 mm 3 mps 740 mmHg 28%
    14:00 +24°C° 0 mm 3 mps 740 mmHg 30%
    15:00 +24°C° 0 mm 3 mps 740 mmHg 32%
    16:00 +24°C° 0 mm 3 mps 739 mmHg 34%
    17:00 +20°C° 0 mm 3 mps 740 mmHg 40%
    18:00 +18°C° 0 mm 3 mps 740 mmHg 45%
    19:00 +16°C° 0 mm 3 mps 740 mmHg 51%
    20:00 +14°C° 0 mm 3 mps 740 mmHg 51%
    21:00 +14°C° 0 mm 3 mps 740 mmHg 52%
    22:00 +13°C° 0 mm 3 mps 740 mmHg 53%
    23:00 +13°C° 0 mm 3 mps 740 mmHg 53%

    29 September, Saturday

    Time Temperature Precipitation Wind Pressure Humidity
    00:00 +13°C° 0 mm 3 mps 740 mmHg 54%
    01:00 +12°C° 0 mm 3 mps 740 mmHg 54%
    02:00 +13°C° 0 mm 2 mps 740 mmHg 54%
    03:00 +13°C° 0 mm 2 mps 740 mmHg 54%
    04:00 +13°C° 0 mm 2 mps 740 mmHg 54%
    05:00 +14°C° 0 mm 2 mps 740 mmHg 52%
    06:00 +15°C° 0 mm 2 mps 740 mmHg 51%
    07:00 +16°C° 0 mm 2 mps 740 mmHg 49%
    08:00 +18°C° 0 mm 2 mps 740 mmHg 43%
    09:00 +20°C° 0 mm 2 mps 740 mmHg 37%
    10:00 +24°C° 0 mm 2 mps 740 mmHg 32%
    11:00 +24°C° 0 mm 2 mps 740 mmHg 31%
    12:00 +25°C° 0 mm 2 mps 740 mmHg 30%
    13:00 +26°C° 0 mm 3 mps 739 mmHg 29%
    14:00 +25°C° 0 mm 3 mps 740 mmHg 31%
    15:00 +25°C° 0 mm 3 mps 740 mmHg 33%
    16:00 +24°C° 0 mm 3 mps 740 mmHg 36%
    17:00 +21°C° 0 mm 3 mps 740 mmHg 42%
    18:00 +19°C° 0 mm 3 mps 741 mmHg 48%
    19:00 +17°C° 0 mm 3 mps 741 mmHg 54%
    20:00 +17°C° 0 mm 3 mps 741 mmHg 56%
    21:00 +16°C° 0 mm 3 mps 742 mmHg 58%
    22:00 +14°C° 0 mm 3 mps 742 mmHg 61%
    23:00 +14°C° 0 mm 3 mps 742 mmHg 62%

    30 September, Sunday

    Time Temperature Precipitation Wind Pressure Humidity
    00:00 +14°C° 0 mm 3 mps 742 mmHg 64%
    01:00 +14°C° 0 mm 3 mps 742 mmHg 65%
    02:00 +14°C° 0 mm 3 mps 742 mmHg 65%
    03:00 +13°C° 0 mm 3 mps 742 mmHg 66%
    04:00 +13°C° 0 mm 3 mps 742 mmHg 66%
    05:00 +14°C° 0 mm 3 mps 742 mmHg 64%
    06:00 +16°C° 0 mm 3 mps 743 mmHg 62%
    07:00 +16°C° 0 mm 3 mps 743 mmHg 60%
    08:00 +18°C° 0 mm 3 mps 743 mmHg 54%
    09:00 +21°C° 0 mm 3 mps 743 mmHg 47%
    10:00 +24°C° 0 mm 2 mps 743 mmHg 41%
    11:00 +25°C° 0 mm 2 mps 742 mmHg 39%
    12:00 +25°C° 0 mm 2 mps 742 mmHg 37%
    13:00 +26°C° 0 mm 2 mps 742 mmHg 35%
    14:00 +25°C° 0 mm 2 mps 742 mmHg 37%
    15:00 +25°C° 0 mm 2 mps 742 mmHg 39%
    16:00 +24°C° 0 mm 2 mps 741 mmHg 41%
    17:00 +21°C° 0 mm 2 mps 742 mmHg 46%
    18:00 +21°C° 0 mm 1 mps 742 mmHg 51%
    19:00 +19°C° 0 mm 1 mps 742 mmHg 57%
    20:00 +18°C° 0 mm 1 mps 742 mmHg 58%
    21:00 +18°C° 0 mm 1 mps 742 mmHg 60%
    22:00 +17°C° 0 mm 2 mps 742 mmHg 61%
    23:00 +16°C° 0 mm 2 mps 742 mmHg 62%
    Show more